sat.trackr.live / text

‹ back to catalog

SUPERVIEW NEO-1 04

NORAD 63126 · 2025-040B

PAYLOAD ACTIVE UNKNOWN

§ Identity

Operator
Country
PRC
Launch date
2025-02-27
Launch site
JSC
Launch vehicle
Mass (kg)
RCS (m²)

External: N2YO · Heavens-Above · Gunter

§ Orbital elements

Epoch: 2026-05-24T17:24:27.298944Z

Period
94.64 min
Inclination
97.3499°
Eccentricity
0.0001775
Mean motion
15.21596035 rev/d
Perigee alt
499.8 km
Apogee alt
502.2 km
Semi-major
6,879.2 km
B*
1.5181e-5
RAAN
259.7871°
Arg perigee
62.0103°
Mean anomaly
298.1313°
Rev number
6,862

§ Raw data

SUPERVIEW NEO-1 041 63126U 25040B   26144.72531596  .00000275  00000+0  15181-4 0  99972 63126  97.3499 259.7871 0001775  62.0103 298.1313 15.21596035 68628

JSON: /api/v1/satellites/63126 · /tle

For live sub-satellite position, see the globe view (requires WebGL).

§ Visibility from observer

Set your observer location to see the next 7 days of passes ≥ 10°. The values pass through the URL so the page stays shareable.

No JS? Fill the form by hand. The geolocation button needs JavaScript.